Regional Weather Roundup
Issued by NWS Green Bay, WI

Home | Current Version | Previous Version | Graphics & Text | Print | Product List | Glossary Off
Versions: 1 2 3 4 5 6 7 8 9 10 11 12 13 14 15 16 17 18 19 20 21 22 23 24 25 26 27 28 29 30 31 32 33 34 35 36 37 38 39 40 41 42 43 44 45 46 47 48 49 50

000
ASUS43 KGRB 200411
RWRGRB

NORTH-CENTRAL AND NORTHEAST WISCONSIN REGIONAL WEATHER ROUNDUP
NATIONAL WEATHER SERVICE GREEN BAY WI
1000 PM CST THU JAN 19 2017

WIZ005-009-010>012-018-019-200500-
NORTH CENTRAL WISCONSIN

CITY           SKY/WX    TMP DP  RH WIND       PRES   REMARKS
IRONWOOD       CLEAR     37  31  78 S6        29.75F
MANITOWISH WTR CLOUDY    29  29 100 CALM      29.74F FOG
ARBOR VITAE    PTCLDY    29  28  95 SE3       29.76F FOG
EAGLE RIVER    CLOUDY    27  27 100 CALM      29.76S FOG
LAND O LAKES   CLOUDY    27  27  99 CALM      29.78S
RHINELANDER    MOCLDY    29  29 100 E5        29.76F FOG
PHILLIPS       CLOUDY    31  29  94 CALM      29.74F
ANTIGO         CLOUDY    30  30 100 SE6       29.78S
TOMAHAWK       FOG       30  30  98 CALM      29.77S VSB 1/2
MERRILL        FOG       31  31 100 CALM        N/A  VSB 1/2
$$

WIZ013-073-200500-
NORTHEAST WISCONSIN

CITY           SKY/WX    TMP DP  RH WIND       PRES   REMARKS
IRON MOUNTAIN  FOG       30  28  92 S5        29.79S VSB 1/2
MARINETTE      NOT AVBL
OCONTO         CLOUDY    32  31  98 CALM      29.83F VSB 1/2
$$

WIZ017-030-035>037-045-200500-
CENTRAL WISCONSIN

CITY           SKY/WX    TMP DP  RH WIND       PRES   REMARKS
MEDFORD        CLOUDY    31  31  99 SE3       29.75S FOG
WAUSAU         CLOUDY    31  30  96 SE5       29.76F FOG
MOSINEE        CLOUDY    30  30 100 SE5       29.79S FOG
MARSHFIELD     CLOUDY    32  31  96 SE5       29.76S FOG
WISC RAPIDS    CLOUDY    34  33  96 SE3       29.80R
STEVENS POINT  CLOUDY    30  30 100 E6        29.80R FOG
WAUPACA        FOG       33  32  95 CALM      29.82R VSB 1/2
SHAWANO        CLOUDY    32  32  97 NE3       29.82F FOG
CLINTONVILLE   FOG       32  32 100 CALM      29.81F VSB 1/2
WAUTOMA        MIX PCPN  32  32 100 NE3       29.81F FOG
$$

WIZ038-039-048-051-200500-
FOX VALLEY

CITY           SKY/WX    TMP DP  RH WIND       PRES   REMARKS
NWS GREEN BAY  CLOUDY    34  33  96 E3        29.82F FOG
APPLETON       FOG       30  30 100 CALM      29.80S VSB 1/2
OSHKOSH        CLOUDY    33  32  96 CALM      29.80F FOG
FOND DU LAC    LGT RAIN  33  31  92 CALM      29.81S FOG
$$

WIZ022-050-052-200500-
EAST CENTRAL WISCONSIN

CITY           SKY/WX    TMP DP  RH WIND       PRES   REMARKS
EPHRAIM        FOG       32  32 100 CALM      29.83F VSB 1/4
WASHINGTON ISL FOG       32  32 100 CALM      29.84F VSB 1/4
STURGEON BAY   FOG       32  31  96 E3        29.84F VSB 1/4
MANITOWOC      FOG       33  32  96 CALM      29.83F VSB 1/4
SHEBOYGAN      FOG       33  31  92 NE5       29.82F VSB 1/4
$$

LMZ563-521-522-541>543-200500-
LAKESHORE

STATION/POSITION TIME  TEMP    WIND        PRES    VSBY  WAVE
                       AIR SEA DIR/SP/G                  HT/PER
                 (UTC) (F)     (DEG/KT/KT) (MB)    (MI)  (FT/S)
SHEBOYGAN LKSHOR 0400   36     120/  6/  6 1010.3F
KEWAUNEE LKSHORE 0348   33      CALM  /  1 1010.0F
NORTHPORT PIER   0340   33     150/  3/  6 1010.8F
SISTER BAY LKSHO 0250   32        CALM       N/A
$$




USA.gov is the U.S. government's official web portal to all federal, state and local government web resources and services.